Content
SEND FEEDBACK

Daily
Averages
Monthly
Summary
Czech Republic

PRAGUE, CZECH REPUBLIC


Home > Europe > Czech Republic
Elevation: 1184 feet     Latitude: 50 06N     Longitude: 014 15E

WEATHER
 
SELECT A DAY
Number of Records: 329,374;   Date Range: 7/1/96 - 10/29/14
 
SHARE

PRINT THIS DATA

[ ← Previous Day ]
WEATHER ALMANAC - JANUARY 10, 2013
[ Next Day → ]
[ °C ]   °F
Weather ElementAverageHighLow
Temperature36.1 °F37.4 °F (12:30 am)33.8 °F (7:00 pm)
Dewpoint32.7 °F35.6 °F (12:30 am)30 °F (7:00 pm)
Humidity87.4 %93 % (12:30 am)74 % (7:00 pm)
Barometer29.77 in29.90 in (1:00 am)29.68 in (6:30 pm)
Wind Speed13.8 mph18.4 mph (4:30 pm)
Weather ElementAverage
Visibility6.7 mi
Wind DirectionWSW (250 °)

Weather ElementTotal
Precipitation---
Heating Degree Days29.4 (Base 65)
Averaged from 58 records on January 10, 2013
WEATHER CONDITIONS BREAKOUT
WIND DIRECTION BREAKOUT
WEATHER BY HOUR - JANUARY 10, 2013
[ °C ]   °F
Local TimeTemperatureDewpointHumidityBarometerVisibilityWind DirectionWind SpeedGust SpeedPrecipitationEventsConditions
12:30 AM37.4 °F35.6 °F93 %29.86 in6.2 miWSW (240°)16.1 mphRainLight Rain
1:00 AM37.0 °F35.0 °F90 %29.90 in7.0 miWSW (250°)15.7 mphRainLight Rain
1:00 AM37.4 °F35.6 °F93 %29.86 in6.2 miWSW (250°)15.0 mphRainLight Rain
1:30 AM37.4 °F33.8 °F87 %29.83 in6.2 miWSW (250°)16.1 mphRainLight Rain
2:00 AM37.4 °F33.8 °F87 %29.83 in6.2 miWSW (240°)17.3 mphRainLight Rain
2:30 AM35.6 °F33.8 °F93 %29.83 in6.2 miWSW (250°)15.0 mphRainLight Rain
3:00 AM35.6 °F33.8 °F93 %29.83 in6.2 miWSW (250°)13.8 mphMostly Cloudy
3:30 AM35.6 °F33.8 °F93 %29.83 in6.2 miWSW (240°)12.7 mphMostly Cloudy
4:01 AM37.4 °F33.8 °F87 %29.83 in6.2 miWSW (240°)15.0 mphMostly Cloudy
4:30 AM37.4 °F35.6 °F93 %29.83 in6.2 miWSW (250°)13.8 mphMostly Cloudy
5:00 AM37.4 °F33.8 °F87 %29.83 in6.2 miWSW (240°)15.0 mphScattered Clouds
5:30 AM37.4 °F33.8 °F87 %29.83 in6.2 miWSW (250°)15.0 mphScattered Clouds
6:00 AM35.6 °F33.8 °F93 %29.83 in6.2 miWSW (250°)12.7 mphMostly Cloudy
6:30 AM35.6 °F33.8 °F93 %29.83 in6.2 miWSW (250°)12.7 mphMostly Cloudy
6:45 AM35.6 °F33.8 °F93 %29.83 in6.2 miWSW (250°)10.4 mphRainLight Rain
7:00 AM36.0 °F34.0 °F89 %29.88 in16.0 miWest (260°)8.9 mphRainLight Rain
7:00 AM35.6 °F33.8 °F93 %29.83 in6.2 miWest (260°)8.1 mphMostly Cloudy
7:30 AM35.6 °F33.8 °F93 %29.83 in6.2 miWest (270°)5.8 mphMostly Cloudy
8:00 AM35.6 °F33.8 °F93 %29.83 in6.2 miWSW (240°)10.4 mphMostly Cloudy
8:30 AM37.4 °F33.8 °F87 %29.83 in6.2 miWSW (240°)13.8 mphOvercast
8:44 AM37.4 °F33.8 °F87 %29.83 in6.2 miWSW (240°)17.3 mphLight Drizzle
9:00 AM37.4 °F33.8 °F87 %29.83 in6.2 miWSW (250°)16.1 mphRainLight Rain Showers
9:30 AM37.4 °F33.8 °F87 %29.83 in6.2 miWSW (250°)15.0 mphOvercast
9:45 AM35.6 °F33.8 °F93 %29.80 in5.6 miWest (260°)13.8 mphRainLight Rain
10:00 AM35.6 °F33.8 °F93 %29.83 in6.2 miWSW (250°)16.1 mphRainLight Rain
10:30 AM35.6 °F33.8 °F93 %29.80 in6.2 miWest (270°)13.8 mphRainLight Rain
11:00 AM35.6 °F33.8 °F93 %29.80 in6.2 miWest (280°)11.5 mphRainLight Rain
11:30 AM35.6 °F33.8 °F93 %29.80 in6.2 miWest (280°)5.8 mphRainLight Rain
12:00 PM37.4 °F33.8 °F87 %29.77 in6.2 miWSW (240°)12.7 mphRainLight Rain
12:30 PM37.4 °F33.8 °F87 %29.77 in6.2 miWest (260°)12.7 mphRainLight Rain
12:38 PM35.6 °F33.8 °F93 %29.77 in6.2 miWest (280°)11.5 mphRainLight Rain
1:00 PM36.0 °F34.0 °F88 %29.83 in12.0 miWest (280°)8.9 mphRainLight Rain
1:00 PM35.6 °F33.8 °F93 %29.77 in6.2 miWest (280°)9.2 mphRainLight Rain
1:30 PM35.6 °F33.8 °F93 %29.77 in6.2 miWest (270°)6.9 mphRainLight Rain
2:00 PM37.4 °F32.0 °F81 %29.74 in6.2 miWNW (300°)3.5 mphRainLight Rain
2:30 PM37.4 °F32.0 °F81 %29.74 in6.2 miWSW (250°)12.7 mphMostly Cloudy
3:00 PM37.4 °F32.0 °F81 %29.71 in6.2 miSW (230°)16.1 mphMostly Cloudy
3:30 PM37.4 °F32.0 °F81 %29.71 in6.2 miSW (230°)17.3 mphMostly Cloudy
4:00 PM37.4 °F30.2 °F75 %29.71 in6.2 miWSW (240°)16.1 mphMostly Cloudy
4:30 PM37.4 °F30.2 °F75 %29.71 in6.2 miWSW (240°)18.4 mphOvercast
5:00 PM35.6 °F30.2 °F81 %29.71 in6.2 miWSW (240°)16.1 mphMostly Cloudy
5:30 PM35.6 °F30.2 °F81 %29.71 in6.2 miWSW (240°)15.0 mphMostly Cloudy
6:00 PM35.6 °F30.2 °F81 %29.71 in6.2 miWSW (240°)15.0 mphMostly Cloudy
6:30 PM35.6 °F30.2 °F81 %29.68 inWSW (240°)17.3 mphClear
7:00 PM33.8 °F30.2 °F87 %29.68 inWSW (240°)16.1 mphClear
7:00 PM35.0 °F30.0 °F74 %29.76 in19.0 miWSW (240°)15.7 mphPartly Cloudy
7:30 PM35.6 °F30.2 °F81 %29.68 in6.2 miSW (230°)15.0 mphScattered Clouds
8:00 PM35.6 °F30.2 °F81 %29.68 in6.2 miWSW (240°)16.1 mphScattered Clouds
8:30 PM35.6 °F30.2 °F81 %29.68 in6.2 miSW (230°)17.3 mphPartly Cloudy
9:00 PM35.6 °F30.2 °F81 %29.68 in6.2 miWSW (240°)16.1 mphScattered Clouds
9:30 PM35.6 °F30.2 °F81 %29.68 in6.2 miWSW (240°)16.1 mphRainLight Rain
9:46 PM35.6 °F30.2 °F81 %29.68 in6.2 miWSW (240°)18.4 mphRain-SnowLight Rain
10:00 PM35.6 °F32.0 °F87 %29.68 in6.2 miWSW (240°)17.3 mphRain-SnowLight Rain
10:30 PM33.8 °F32.0 °F93 %29.68 in6.2 miWSW (250°)16.1 mphRain-SnowLight Rain
10:44 PM33.8 °F32.0 °F93 %29.68 in6.2 miWSW (240°)17.3 mphMostly Cloudy
11:00 PM33.8 °F32.0 °F93 %29.68 in6.2 miWSW (250°)13.8 mphMostly Cloudy
11:30 PM35.6 °F32.0 °F87 %29.68 in6.2 miWest (260°)9.2 mphMostly Cloudy
11:43 PM35.6 °F32.0 °F87 %29.68 in6.2 miWSW (250°)11.5 mphRain-SnowLight Rain
Hourly data recorded from LKPR, located miles away from Prague, Czech Republic







STORIES FROM OUR PARTNERS